logo
Search for airport 
image banner adimage banner adimage banner ad
image banner ad

OTHH - Hamad Intl

Located in Doha, Qatar

ICAO - , IATA - DOH

Data provided by Airmate  

General information

Coordinates: N25°16'28" E51°36'30"
Elevation is 13 feet MSL.
 
View others Airports in Ad Dawhah Municipality

Operational data

Special qualification required
Current time UTC:
Current local time:
Weather
METAR: OTHH 240600Z 34014KT CAVOK 36/15 Q1004 NOSIG
TAF: TAF OTHH 240529Z 2406/2512 36011KT CAVOK TEMPO 2406/2417 29010KT TEMPO 2406/2420 36015G25KT
View NOTAMs / SUP AIP / TFR affecting this airport [VIEW]
Communications frequencies: [VIEW]

Runways:

RWY identifierQFULength (ft)Width (ft)SurfaceLDA (ft)
16R158°13944197UNK
34L338°13944197UNK
16L158°15912197UNK
34R338°15912197UNK

Airport contact information

Address: Doha Qatar

Satellite view of OTHH